CAPE
4 0 0 0 1 4 1 0 2 2 2 1 8 6 1 3 0 6 3 0 0 0 2 1 3 8 6 0 0 0 0 0 0 0 0 0 0 0 0 0 0 0 0 0
0 0 3 0 1 5 3 0 0 0 1 1 1 1 0 0 1 0 0 2 0 0 4 3 3 0 0 0 0 0 0 1 0 0 0 0 0 0 0 0 0 0 0 0
0 0 0 1 8 0 7 0 0 0 0 0 0 1 1 1 1 3 0 0 0 0 1 1 0 0 0 0 0 0 0 2 0 0 0 0 0 0 0 0 0 0 0 0
13 1 1 5 0 27 3 13 2 0 0 1 1 0 0 1 2 3 0 0 0 0 0 0 0 0 0 0 0 0 0 0 0 0 0 0 0 0 0 1 0 0 0 0
17 12 8 19 10 3 26 6 3 1 0 0 1 0 0 1 0 0 0 0 0 0 0 0 0 0 0 0 0 0 2 1 1 0 0 1 0 0 0 0 0 0 0 0
0 2 8 25 77 45 13 2 16 3 3 1 0 0 0 0 1 0 0 0 0 0 0 0 0 0 0 0 0 1 3 3 1 0 0 0 0 0 0 0 0 0 0 0
4 0 0 19 48 78 8 3 0 6 0 4 0 0 0 0 1 0 0 0 0 0 0 0 0 0 1 1 1 0 1 3 1 0 0 0 0 0 0 0 0 1 1 0
14 0 0 8 19 29 64 3 7 5 0 3 3 7 4 7 12 13 2 0 0 0 0 0 0 0 0 0 1 1 1 2 0 0 0 0 0 0 0 0 0 0 0 0
19 15 15 13 17 19 42 39 68 44 11 0 0 2 6 7 8 0 0 1 0 0 0 0 0 0 0 0 2 2 2 1 0 0 0 0 0 0 0 0 0 0 0 0
15 11 12 13 24 22 26 38 33 84 57 1 5 3 3 13 11 0 1 2 1 0 0 0 0 0 0 0 0 0 3 1 0 0 1 0 0 0 0 0 0 0 0 0
8 2 1 16 19 29 37 9 38 43 36 1 1 0 3 1 0 0 1 0 0 1 0 0 0 0 0 0 0 0 0 0 0 0 0 0 0 0 0 0 0 0 0 0
11 5 0 25 26 25 37 30 26 19 15 0 0 0 0 0 0 0 3 0 0 0 2 0 0 0 2 0 0 0 1 0 0 0 0 0 0 0 0 0 0 0 0 0
21 17 6 26 19 18 36 39 0 1 0 0 0 0 0 0 0 0 0 1 0 3 1 1 0 0 0 0 0 0 0 0 0 0 0 0 0 0 0 0 0 0 0 0
12 3 6 14 17 41 59 30 0 2 0 2 0 2 0 0 1 0 0 0 0 1 2 0 0 0 0 0 0 0 0 0 0 0 0 0 0 0 0 0 0 0 0 0
15 5 3 14 6 32 63 16 0 13 3 0 1 0 0 0 1 1 0 0 1 0 0 0 0 0 0 0 0 0 0 0 0 0 0 0 0 0 0 0 0 0 0 0
21 11 4 37 49 70 2 0 1 4 0 0 0 0 0 0 3 1 2 4 2 1 0 0 0 0 0 0 0 0 0 0 0 0 0 0 0 0 0 0 0 0 7 4
21 8 3 61 68 40 10 0 0 14 2 0 0 0 0 2 3 3 3 4 1 1 0 1 0 0 0 0 0 0 0 0 0 0 0 0 0 2 11 0 0 0 0 4
20 19 31 69 27 13 0 1 1 4 1 0 1 1 0 1 1 1 2 3 0 0 0 0 0 0 0 0 0 0 0 0 0 0 0 0 1 0 0 0 0 0 0 0
30 80 17 0 0 0 1 0 0 1 1 3 0 1 2 0 2 4 1 0 1 0 0 0 0 0 0 0 0 0 0 0 0 0 0 0 0 1 0 0 0 0 0 0
0 0 1 0 0 2 0 0 0 0 0 0 0 0 1 0 0 3 2 1 1 0 0 3 0 0 0 0 2 0 0 0 0 0 0 0 3 0 0 0 0 1 0 0
0 1 0 1 0 0 0 0 2 0 0 1 1 0 0 1 0 0 2 3 4 0 0 0 0 0 0 0 0 0 0 0 0 0 0 1 1 0 0 0 2 1 0 0
0 0 0 0 0 1 0 0 0 0 0 0 1 0 0 1 0 5 13 0 0 0 0 0 0 0 0 0 0 0 0 0 1 0 1 4 3 0 0 0 2 1 0 0
0 0 0 0 0 0 0 0 1 0 0 1 0 0 0 1 12 0 0 0 0 1 0 0 0 0 1 0 1 0 0 0 0 0 1 2 0 0 0 0 0 0 0 0
0 0 0 0 0 1 2 0 0 0 0 1 2 2 0 1 0 0 0 0 0 2 0 0 0 0 1 0 0 0 0 0 0 0 0 0 0 0 0 0 0 0 0 0
0 0 0 0 0 1 4 13 23 25 13 1 7 3 0 0 0 0 1 0 0 0 0 0 0 0 0 1 0 0 0 0 0 1 0 0 0 0 0 0 0 0 0 0
0 5 5 17 0 8 10 1 1 3 6 0 0 0 0 0 0 0 0 0 0 4 0 1 1 1 1 1 0 0 0 1 0 0 0 0 0 0 0 0 0 0 0 1
1 15 14 7 0 0 0 8 11 5 7 0 0 0 0 1 0 1 0 1 1 1 1 1 5 1 0 0 0 0 0 0 0 0 0 0 0 0 0 0 0 1 0 0
CIN
0 0 0 0 0 0 0 0 0 0 0 0 -1 0 0 -2 -1 0 -1 0 -5 0 -11 -2 -1 -4 -17 0 0 0 0 0 0 0 0 0 0 0 0 0 0 0 0 0
0 0 0 0 0 0 0 0 0 0 0 0 0 0 0 0 -2 0 0 -1 0 0 0 0 0 0 0 0 0 0 0 0 0 0 0 0 0 0 0 0 0 0 0 0
0 0 0 0 0 0 0 0 0 0 0 0 0 0 0 0 -1 0 0 0 0 0 0 -1 0 0 0 0 0 0 0 0 0 0 0 0 0 0 0 -1 0 0 0 0
0 -1 -1 0 0 0 0 0 -1 0 0 0 0 0 0 0 0 0 0 0 0 0 0 0 0 0 0 0 0 0 0 0 0 0 0 0 0 0 -1 -2 0 0 0 0
-1 -1 -1 -1 0 0 0 0 0 0 0 0 0 0 0 0 0 0 0 0 0 0 0 0 0 0 0 0 0 0 0 0 0 0 0 0 0 0 0 0 0 0 0 0
0 -1 -2 0 0 0 0 0 -3 -1 0 -2 0 0 0 0 -1 0 0 0 0 0 0 0 0 0 0 0 0 0 0 0 0 0 -1 -1 0 0 0 0 0 0 0 0
-1 0 0 -1 0 -1 -1 0 0 0 0 0 0 0 0 0 0 0 0 0 0 0 0 0 0 0 0 0 0 0 0 0 0 0 0 0 0 0 0 0 0 -1 0 0
-1 0 0 -1 -1 -2 -1 -1 0 0 0 0 0 0 0 -1 -1 -1 -5 0 0 0 0 0 0 0 0 0 0 0 0 0 0 0 0 0 0 0 0 0 0 0 0 0
-2 -1 -1 -1 -1 -4 0 0 -1 0 0 0 0 0 0 0 -1 0 0 0 0 0 0 0 0 0 0 0 0 0 0 0 0 0 0 0 0 0 0 0 0 0 0 0
-3 -8 -5 -1 0 -3 -2 0 -1 0 0 0 -4 0 0 0 -1 0 0 0 0 0 0 0 0 0 0 0 0 0 0 0 0 0 -1 0 0 0 0 0 0 0 0 0
-12 -11 -3 -1 0 -4 -2 -1 -1 -1 0 0 -1 -1 -2 -4 0 0 0 0 0 0 0 0 0 0 0 0 0 0 0 0 0 -1 0 0 0 0 0 0 0 0 0 0
-1 -8 0 0 0 -6 -8 0 -2 -2 -1 -1 0 0 0 0 0 0 0 0 0 0 0 0 0 0 0 0 0 0 0 0 0 0 0 0 0 0 0 0 0 0 0 0
-1 -6 -3 0 -12 -19 -5 0 0 -3 0 0 0 0 0 0 0 0 0 0 0 0 -1 0 0 0 0 0 0 0 0 0 0 0 0 0 0 0 0 0 0 0 0 0
-3 -9 -3 -3 -18 -12 -4 -2 0 -3 0 -4 0 0 0 0 0 0 0 0 0 0 -1 0 0 0 0 0 0 0 0 0 0 0 0 0 0 0 0 0 0 0 0 0
0 -1 -1 -2 -22 -11 -2 -35 0 -1 0 0 0 0 0 0 0 0 0 0 0 0 0 0 0 0 0 0 0 0 0 0 0 0 0 0 0 0 0 0 0 0 0 0
0 -4 -4 -6 -5 -7 -3 0 -4 -32 0 0 0 0 0 0 0 0 0 0 0 0 0 0 0 0 0 0 0 0 0 0 0 0 0 0 0 0 0 0 0 0 -4 -3
0 -4 -3 -3 -5 -7 -1 0 0 0 -3 0 0 0 0 0 0 0 0 0 0 0 0 0 0 0 0 0 0 0 0 0 0 0 0 0 0 -1 -18 0 0 0 0 -17
0 -3 0 -7 -8 -11 0 0 0 0 -2 0 0 0 0 0 0 0 0 0 -1 0 0 0 0 0 0 0 0 0 0 0 0 0 0 0 -4 0 0 0 0 0 0 0
0 0 0 0 0 0 0 0 0 0 -2 -7 0 0 0 0 0 0 0 0 0 0 0 0 0 0 0 0 0 0 0 0 0 0 0 0 0 -17 0 0 0 0 -1 -1
0 0 0 0 0 0 0 0 0 0 0 0 0 0 0 0 0 0 0 0 -2 -2 0 0 0 0 0 0 -21 0 0 0 0 0 0 0 0 0 -2 0 0 -1 -1 0
0 0 0 0 0 0 0 0 0 0 0 0 0 0 0 -2 0 0 0 -1 -2 -1 0 0 0 0 0 0 0 0 0 0 0 0 0 0 0 0 0 -1 0 0 0 0
0 0 0 0 0 -16 0 -1 0 0 0 0 0 0 0 0 0 -2 -2 -1 0 -1 0 0 0 0 0 0 0 0 0 0 0 0 0 0 0 0 0 -1 0 -2 0 0
0 0 0 0 0 0 0 0 -2 0 0 0 0 0 0 -5 -3 -3 0 0 0 -2 -1 -1 0 0 0 0 -1 0 0 0 0 0 0 0 0 0 0 0 0 0 0 0
0 0 0 0 0 0 -2 0 0 0 0 0 0 0 0 -1 0 0 0 -1 0 -1 -1 0 0 0 -3 -1 -1 -2 0 -1 0 0 0 0 0 0 0 0 0 0 0 0
0 0 0 0 0 0 0 0 0 0 -2 -1 -3 0 0 0 0 -1 -1 0 -1 0 0 0 0 0 0 0 -1 0 0 0 0 0 0 0 0 0 0 0 0 0 0 -2
0 -1 -1 -1 -2 0 0 -1 -1 -2 -1 0 0 0 0 0 0 0 0 0 0 -1 0 0 0 -1 -1 -1 -1 0 0 0 0 0 0 0 0 0 0 0 0 0 -1 -1
0 -1 0 -1 -1 0 0 -1 0 -1 0 0 0 0 -1 -1 -1 -1 0 -2 -1 0 0 -1 -1 -1 0 0 0 0 0 0 0 0 0 0 0 0 0 0 0 -1 0 -4
Wind_Speed
43 43 41 45 39 33 30 32 40 23 20 30 34 39 31 30 28 24 28 30 29 27 26 31 33 31 28 23 26 26 25 29 35 31 30 28 26 28 27 31 33 30 35 41
46 46 46 40 39 32 29 37 34 26 25 41 42 41 39 37 36 31 30 31 28 27 30 34 31 32 28 28 26 26 22 28 35 35 27 22 26 26 26 28 34 38 39 44
47 49 49 46 41 39 38 34 39 33 37 40 44 41 41 40 36 37 34 34 32 31 31 29 35 32 29 27 24 19 21 31 31 36 34 32 35 33 34 35 40 44 45 45
46 46 46 45 44 37 34 39 38 35 44 45 41 39 40 41 40 34 31 38 36 33 38 36 37 34 32 29 25 22 22 36 34 37 39 41 43 42 37 36 38 41 47 43
45 46 48 44 44 42 42 42 38 35 40 39 43 42 45 41 37 34 36 37 33 33 38 35 37 32 32 34 25 22 23 36 34 43 39 40 44 43 40 40 41 41 41 47
48 48 51 47 44 39 43 43 35 38 43 43 44 49 47 42 36 38 38 36 37 37 40 36 37 28 27 29 25 24 28 33 36 48 37 40 48 41 40 40 36 36 41 38
50 49 48 47 45 46 45 43 42 42 50 45 48 47 46 47 44 45 38 37 38 37 27 26 29 29 32 28 27 25 32 32 32 44 38 46 41 32 29 31 30 29 32 32
48 48 48 48 47 47 47 45 46 48 52 49 51 52 48 44 45 46 43 37 35 23 28 34 35 35 35 36 33 31 28 30 37 41 43 45 42 32 28 28 32 26 27 26
47 47 47 46 45 45 45 45 41 45 50 56 52 50 48 52 48 44 40 31 23 27 33 36 41 43 36 34 34 29 29 28 35 35 42 47 33 28 25 23 38 24 25 26
46 46 46 45 45 44 44 46 41 41 51 41 37 46 52 44 43 44 37 33 33 31 38 43 45 44 33 39 39 36 32 34 39 39 43 40 30 22 22 29 30 21 23 24
44 44 44 45 43 43 42 47 40 46 46 39 33 32 35 35 36 41 34 34 35 35 42 42 41 42 37 38 36 36 34 34 38 38 41 45 23 18 26 23 21 22 23 25
41 41 41 41 40 41 40 43 38 38 48 43 39 39 35 33 31 34 32 39 36 33 36 35 32 34 32 36 41 26 35 30 32 29 32 24 24 18 19 20 22 25 28 29
38 39 39 38 38 38 38 38 29 31 38 44 45 44 41 38 35 27 34 34 29 32 30 31 31 35 31 37 37 31 30 23 30 27 28 23 20 19 18 20 26 26 27 31
28 31 33 34 35 34 34 35 29 28 31 46 41 33 41 35 36 33 32 31 30 26 25 29 30 33 28 33 31 30 26 24 28 30 27 25 24 26 27 26 26 26 28 30
33 32 30 28 28 27 26 26 29 30 34 32 36 30 30 29 29 28 26 24 24 27 30 31 33 28 26 27 28 31 24 25 27 29 24 26 27 27 26 27 28 31 34 35
30 27 28 26 24 22 21 26 25 22 25 33 39 27 30 28 23 23 25 23 25 27 29 30 27 24 25 28 32 26 21 21 22 27 27 28 25 26 29 30 32 32 32 30
30 28 25 22 19 21 24 25 23 19 19 28 34 34 24 20 21 21 20 20 23 25 26 27 25 25 22 28 30 20 17 20 21 20 22 26 25 27 28 30 31 32 33 31
32 28 25 21 19 17 18 15 5 11 20 23 30 28 24 18 21 21 18 20 20 23 23 22 22 18 22 29 23 22 23 22 20 20 22 26 29 29 30 30 31 31 29 28
31 27 20 16 20 20 14 4 8 14 18 27 26 29 34 21 21 18 18 19 23 19 22 21 20 22 27 22 20 21 20 18 20 23 26 29 30 30 28 27 25 25 25 25
33 21 16 12 13 15 3 14 17 21 21 18 26 20 24 19 18 20 18 17 20 25 21 16 23 24 21 18 17 16 17 19 22 26 28 25 24 23 23 22 21 22 23 25
23 21 15 13 10 8 17 22 25 21 22 25 21 16 14 15 18 15 15 16 16 22 20 20 23 25 17 14 15 16 18 20 21 20 19 20 20 20 19 20 21 23 25 26
20 19 18 19 19 20 25 29 27 31 31 28 25 18 17 16 16 19 17 16 14 21 11 19 26 19 13 14 16 17 17 17 17 16 17 17 18 17 18 21 25 27 27 28
17 16 18 20 21 26 29 32 30 29 32 11 11 8 8 10 11 13 13 15 17 8 17 21 22 12 12 13 13 13 15 15 16 16 15 16 18 19 21 25 27 27 28 27
16 15 16 18 21 21 23 21 23 12 8 9 7 3 8 8 9 10 13 12 13 18 21 22 14 10 10 10 11 13 13 13 14 15 15 15 16 20 24 26 27 27 29 29
11 11 10 14 5 3 4 5 6 7 6 5 4 7 9 11 13 15 15 15 18 18 19 16 7 7 8 10 11 10 12 13 14 13 13 14 16 24 27 28 28 28 30 31
12 13 12 12 13 12 11 11 12 12 8 6 7 10 13 15 14 15 16 15 17 17 13 9 7 8 9 10 11 12 13 14 16 17 19 21 24 27 29 34 34 34 33 34
13 10 8 8 9 8 9 8 7 6 6 7 9 13 14 9 15 14 12 15 11 11 10 10 9 9 10 12 13 15 16 17 19 21 24 26 27 29 30 34 35 34 34 35
Wind_Direction
256 254 254 252 257 258 251 257 256 246 215 241 252 249 251 268 273 261 269 279 276 279 286 288 286 284 286 312 311 306 309 305 300 299 303 302 296 296 297 298 304 296 297 293
255 253 251 253 255 251 259 253 253 245 234 246 245 260 254 262 261 271 266 266 271 276 278 288 283 286 295 297 295 298 303 300 304 309 310 304 297 295 300 297 298 292 296 299
251 250 251 253 253 249 251 258 250 253 249 257 252 251 263 256 260 260 264 275 276 276 276 277 290 288 295 298 294 291 298 291 290 295 302 313 304 301 300 297 292 299 292 298
249 249 250 249 248 246 246 251 257 253 248 247 254 252 263 260 260 258 258 269 264 269 278 278 277 284 290 295 296 293 289 290 290 291 296 298 297 296 296 293 294 294 299 298
251 249 248 247 245 243 245 250 251 255 256 253 249 255 256 258 258 258 264 263 266 267 266 269 281 279 282 286 292 288 291 293 295 293 297 297 296 292 293 291 292 291 295 295
249 248 248 246 242 238 248 250 259 254 255 253 250 250 258 261 257 263 260 263 267 268 267 275 283 278 283 289 283 280 289 292 295 294 300 301 296 296 289 291 292 296 294 299
247 247 247 246 242 237 247 252 256 256 254 252 252 258 258 259 259 262 267 265 265 277 283 285 289 285 285 278 276 280 288 286 293 296 301 294 301 306 304 302 303 302 299 301
246 246 246 246 243 239 245 248 250 255 259 257 259 259 261 262 261 263 265 267 271 269 281 279 281 284 285 280 277 276 281 284 292 292 292 297 299 309 309 307 306 310 312 313
244 246 246 247 243 240 242 247 249 252 261 260 259 262 263 262 261 265 267 270 262 272 274 276 276 278 283 284 292 279 275 280 283 293 294 298 316 323 321 303 302 308 310 315
244 246 247 246 243 238 241 248 243 252 256 263 266 260 259 259 262 263 266 264 267 270 271 272 274 278 279 280 286 292 281 281 279 284 288 297 303 313 323 303 314 326 327 322
243 245 246 245 241 237 236 245 245 245 256 261 265 269 267 262 258 259 263 266 271 269 269 272 277 277 276 283 284 287 283 287 286 285 290 292 303 305 301 314 321 323 322 321
242 244 244 242 237 235 234 247 244 248 252 262 263 265 269 271 269 262 258 269 269 269 272 273 279 280 282 284 286 280 286 284 291 289 297 307 320 301 315 320 318 319 319 320
241 242 241 238 236 234 232 241 245 246 253 259 262 262 265 266 266 265 266 272 270 271 279 279 281 282 281 282 285 286 286 287 288 296 296 302 309 310 312 316 317 319 318 317
232 239 238 235 233 233 230 238 240 245 256 255 263 270 262 270 265 259 263 265 270 274 276 280 281 283 285 286 293 283 290 288 290 293 295 305 305 309 314 316 318 320 319 317
232 233 232 230 230 226 228 240 242 243 250 265 263 269 271 270 261 255 256 252 258 268 273 279 281 287 288 292 289 288 285 290 290 294 303 305 306 313 317 316 317 316 315 314
220 221 224 223 220 214 228 247 249 245 251 258 261 278 269 263 260 255 255 254 266 270 273 277 283 286 290 288 288 291 293 298 298 297 303 306 312 314 312 311 312 314 317 318
204 210 211 205 198 210 227 252 257 235 250 259 259 263 271 263 257 258 259 264 268 272 276 278 280 282 286 289 288 301 300 305 306 311 312 309 312 314 317 317 319 320 318 316
188 197 196 193 188 217 245 272 256 237 247 262 256 255 251 257 251 256 266 265 270 275 278 278 277 283 287 289 294 294 299 302 309 318 318 316 315 314 314 319 321 321 323 325
164 167 165 195 225 232 240 241 285 287 258 251 249 246 243 246 257 261 264 271 271 279 278 278 279 280 285 292 294 301 310 315 315 316 315 315 314 313 315 320 323 326 329 331
132 161 199 224 230 139 187 272 263 256 268 262 249 241 243 231 239 255 260 271 269 272 274 288 285 285 288 297 311 314 317 323 320 312 314 319 320 321 324 326 329 330 330 326
176 195 214 134 196 236 253 238 234 243 256 241 238 223 210 233 243 244 272 273 275 272 277 278 286 290 293 307 311 317 323 326 325 326 327 330 325 324 326 329 328 323 318 316
169 150 175 194 209 221 208 201 215 205 202 225 224 224 230 245 252 262 270 276 283 280 286 289 291 297 300 305 311 321 330 331 332 337 334 334 335 330 327 323 316 308 310 312
164 185 198 206 210 189 180 186 201 178 176 214 208 205 237 254 271 273 280 282 284 309 293 293 300 306 309 316 324 331 336 337 339 341 342 339 338 322 316 310 309 312 312 313
178 190 204 213 215 229 234 230 221 235 138 135 138 187 267 275 288 297 290 298 303 292 292 296 304 310 327 333 336 339 340 346 343 340 341 343 339 325 314 309 309 315 313 311
249 240 154 222 247 21 49 79 101 130 155 172 226 276 284 284 291 293 298 295 297 298 302 309 329 345 345 343 341 342 341 341 342 343 340 338 335 316 309 310 310 309 309 309
342 346 51 61 64 62 64 69 77 85 76 46 360 313 294 292 304 297 298 300 305 312 325 347 354 345 343 345 347 346 343 339 335 333 330 326 322 318 313 304 305 305 306 304
333 343 5 38 42 50 50 50 58 57 8 342 344 310 309 340 307 306 318 313 335 350 353 349 355 356 353 346 341 338 335 333 330 326 324 321 319 316 313 309 307 306 304 304